When you browse on this site, cookies collect data to enhance your experience and personalize the content and advertising you see.
Visit our Privacy Policy to learn more. By continuing to use the site, you agree to this use of cookies and data.
EN

Hourly Weather Viknyany

Today, 6 August, Thursday

Time Temperature Precipitation Wind Pressure Humidity
00:00 +20°C° 0 mm 2 mps 735 mmHg 79%
01:00 +21°C° 0 mm 1 mps 736 mmHg 77%
02:00 +15°C° 0 mm 0 mps 736 mmHg 88%
03:00 +16°C° 0 mm 2 mps 736 mmHg 93%
04:00 +16°C° 0 mm 2 mps 736 mmHg 95%
05:00 +15°C° 0 mm 2 mps 736 mmHg 98%
06:00 +15°C° 0 mm 1 mps 736 mmHg 99%
07:00 +16°C° 0 mm 1 mps 737 mmHg 97%
08:00 +19°C° 0 mm 1 mps 737 mmHg 94%
09:00 +21°C° 0 mm 1 mps 738 mmHg 92%
10:00 +21°C° 0 mm 0 mps 738 mmHg 85%
11:00 +22°C° 0 mm 0 mps 738 mmHg 83%
12:00 +24°C° 0 mm 0 mps 739 mmHg 75%
13:00 +27°C° 0 mm 1 mps 739 mmHg 75%
14:00 +29°C° 0 mm 1 mps 739 mmHg 69%
15:00 +29°C° 0 mm 3 mps 739 mmHg 61%
16:00 +29°C° 0 mm 4 mps 738 mmHg 59%
17:00 +29°C° 0 mm 4 mps 738 mmHg 62%
18:00 +28°C° 0 mm 3 mps 738 mmHg 67%
19:00 +26°C° 0 mm 2 mps 738 mmHg 75%
20:00 +25°C° 0 mm 2 mps 738 mmHg 79%
21:00 +24°C° 0 mm 2 mps 738 mmHg 81%
22:00 +23°C° 0 mm 2 mps 738 mmHg 82%
23:00 +23°C° 0 mm 2 mps 738 mmHg 84%

Tomorrow, 7 August, Friday

Time Temperature Precipitation Wind Pressure Humidity
00:00 +21°C° 0 mm 2 mps 739 mmHg 88%
01:00 +20°C° 0 mm 2 mps 739 mmHg 92%
02:00 +20°C° 0 mm 2 mps 739 mmHg 93%
03:00 +20°C° 0 mm 1 mps 739 mmHg 93%
04:00 +20°C° 0 mm 1 mps 739 mmHg 92%
05:00 +20°C° 0 mm 1 mps 739 mmHg 93%
06:00 +20°C° 0 mm 1 mps 739 mmHg 94%
07:00 +18°C° 0 mm 0 mps 739 mmHg 95%
08:00 +20°C° 0 mm 0 mps 740 mmHg 95%
09:00 +23°C° 0 mm 1 mps 740 mmHg 92%
10:00 +25°C° 0 mm 1 mps 740 mmHg 90%
11:00 +26°C° 0 mm 2 mps 740 mmHg 87%
12:00 +27°C° 0 mm 2 mps 740 mmHg 83%
13:00 +27°C° 0 mm 3 mps 740 mmHg 79%
14:00 +27°C° 0 mm 4 mps 740 mmHg 77%
15:00 +27°C° 0 mm 5 mps 739 mmHg 77%
16:00 +27°C° 0 mm 5 mps 739 mmHg 81%
17:00 +27°C° 0 mm 5 mps 739 mmHg 82%
18:00 +26°C° 0 mm 5 mps 739 mmHg 86%
19:00 +25°C° 0 mm 4 mps 739 mmHg 91%
20:00 +24°C° 0 mm 3 mps 739 mmHg 94%
21:00 +23°C° 0 mm 2 mps 739 mmHg 97%
22:00 +21°C° 0 mm 2 mps 739 mmHg 97%
23:00 +20°C° 0 mm 2 mps 739 mmHg 98%

Day after tomorrow, 8 August, Saturday

Time Temperature Precipitation Wind Pressure Humidity
00:00 +20°C° 0 mm 2 mps 739 mmHg 100%
01:00 +21°C° 0 mm 1 mps 739 mmHg 100%
02:00 +21°C° 0 mm 1 mps 739 mmHg 100%
03:00 +21°C° 0 mm 1 mps 739 mmHg 99%
04:00 +20°C° 0 mm 1 mps 739 mmHg 100%
05:00 +20°C° 0 mm 1 mps 739 mmHg 100%
06:00 +18°C° 0 mm 2 mps 739 mmHg 100%
07:00 +19°C° 0 mm 2 mps 739 mmHg 100%
08:00 +19°C° 0 mm 3 mps 739 mmHg 99%
09:00 +20°C° 0 mm 2 mps 739 mmHg 97%
10:00 +21°C° 0 mm 2 mps 740 mmHg 96%
11:00 +21°C° 0 mm 3 mps 740 mmHg 94%
12:00 +22°C° 0 mm 3 mps 740 mmHg 91%
13:00 +22°C° 0 mm 3 mps 739 mmHg 89%
14:00 +24°C° 0 mm 3 mps 739 mmHg 86%
15:00 +24°C° 0 mm 3 mps 739 mmHg 83%
16:00 +24°C° 0 mm 3 mps 738 mmHg 81%
17:00 +24°C° 0 mm 3 mps 738 mmHg 82%
18:00 +24°C° 0 mm 2 mps 738 mmHg 84%
19:00 +21°C° 0.5 mm 2 mps 738 mmHg 97%
20:00 +20°C° 0.1 mm 0 mps 738 mmHg 95%
21:00 +22°C° 0 mm 1 mps 738 mmHg 95%
22:00 +21°C° 0 mm 1 mps 738 mmHg 98%
23:00 +20°C° 0 mm 1 mps 738 mmHg 99%

9 August, Sunday

Time Temperature Precipitation Wind Pressure Humidity
00:00 +20°C° 0 mm 1 mps 738 mmHg 99%
01:00 +19°C° 0 mm 1 mps 738 mmHg 100%
02:00 +19°C° 0 mm 1 mps 737 mmHg 100%
03:00 +19°C° 0 mm 1 mps 737 mmHg 99%
04:00 +16°C° 0 mm 0 mps 737 mmHg 99%
05:00 +18°C° 0 mm 1 mps 737 mmHg 100%
06:00 +18°C° 0 mm 1 mps 737 mmHg 100%
07:00 +19°C° 0 mm 1 mps 737 mmHg 99%
08:00 +18°C° 0 mm 0 mps 737 mmHg 97%
09:00 +21°C° 0 mm 1 mps 737 mmHg 97%
10:00 +22°C° 0 mm 1 mps 738 mmHg 95%
11:00 +23°C° 0 mm 1 mps 738 mmHg 89%
12:00 +23°C° 0 mm 2 mps 738 mmHg 84%
13:00 +24°C° 0 mm 1 mps 738 mmHg 82%
14:00 +24°C° 0 mm 1 mps 737 mmHg 80%
15:00 +24°C° 0 mm 2 mps 737 mmHg 82%
16:00 +25°C° 0 mm 2 mps 736 mmHg 82%
17:00 +24°C° 0 mm 2 mps 736 mmHg 82%
18:00 +24°C° 0 mm 1 mps 736 mmHg 85%
19:00 +24°C° 0 mm 1 mps 736 mmHg 91%
20:00 +23°C° 0 mm 1 mps 736 mmHg 93%
21:00 +20°C° 0 mm 0 mps 736 mmHg 91%
22:00 +20°C° 0 mm 0 mps 736 mmHg 92%
23:00 +19°C° 0 mm 0 mps 736 mmHg 96%

10 August, Monday

Time Temperature Precipitation Wind Pressure Humidity
00:00 +19°C° 0 mm 0 mps 736 mmHg 97%
01:00 +20°C° 0 mm 1 mps 736 mmHg 99%
02:00 +20°C° 0 mm 1 mps 736 mmHg 100%
03:00 +20°C° 0 mm 1 mps 735 mmHg 99%
04:00 +20°C° 0 mm 1 mps 735 mmHg 100%
05:00 +19°C° 0 mm 1 mps 735 mmHg 100%
06:00 +19°C° 0 mm 1 mps 735 mmHg 100%
07:00 +18°C° 0 mm 0 mps 736 mmHg 100%
08:00 +20°C° 0 mm 1 mps 736 mmHg 100%
09:00 +20°C° 0 mm 2 mps 736 mmHg 97%
10:00 +20°C° 0 mm 2 mps 736 mmHg 96%
11:00 +21°C° 0 mm 2 mps 736 mmHg 96%
12:00 +23°C° 0 mm 2 mps 736 mmHg 91%
13:00 +24°C° 0 mm 2 mps 736 mmHg 89%
14:00 +25°C° 0 mm 2 mps 735 mmHg 87%
15:00 +25°C° 0 mm 2 mps 735 mmHg 84%
16:00 +25°C° 0 mm 3 mps 735 mmHg 83%
17:00 +25°C° 0 mm 4 mps 735 mmHg 90%
18:00 +24°C° 0 mm 2 mps 735 mmHg 89%
19:00 +24°C° 0 mm 2 mps 734 mmHg 92%
20:00 +23°C° 0 mm 2 mps 735 mmHg 95%
21:00 +22°C° 0 mm 1 mps 735 mmHg 97%
22:00 +21°C° 0 mm 1 mps 735 mmHg 98%
23:00 +20°C° 0 mm 2 mps 735 mmHg 99%

11 August, Tuesday

Time Temperature Precipitation Wind Pressure Humidity
00:00 +20°C° 0 mm 1 mps 735 mmHg 99%
01:00 +20°C° 0 mm 1 mps 735 mmHg 100%
02:00 +20°C° 0 mm 1 mps 735 mmHg 100%
03:00 +19°C° 0 mm 1 mps 735 mmHg 100%
04:00 +19°C° 0 mm 1 mps 735 mmHg 100%
05:00 +19°C° 0 mm 1 mps 735 mmHg 99%
06:00 +19°C° 0 mm 1 mps 735 mmHg 99%
07:00 +19°C° 0 mm 1 mps 735 mmHg 98%
08:00 +20°C° 0 mm 1 mps 735 mmHg 98%
09:00 +20°C° 0 mm 1 mps 736 mmHg 96%
10:00 +19°C° 0 mm 2 mps 736 mmHg 97%
11:00 +20°C° 0 mm 2 mps 736 mmHg 96%
12:00 +21°C° 0 mm 2 mps 736 mmHg 94%
13:00 +21°C° 0 mm 2 mps 736 mmHg 92%
14:00 +24°C° 0 mm 1 mps 735 mmHg 86%
15:00 +24°C° 0 mm 1 mps 735 mmHg 85%
16:00 +24°C° 0 mm 1 mps 735 mmHg 85%
17:00 +24°C° 0 mm 3 mps 735 mmHg 88%
18:00 +22°C° 0 mm 3 mps 735 mmHg 91%
19:00 +21°C° 0 mm 2 mps 734 mmHg 91%
20:00 +21°C° 0 mm 1 mps 735 mmHg 94%
21:00 +21°C° 0 mm 1 mps 735 mmHg 95%
22:00 +21°C° 0 mm 1 mps 735 mmHg 98%
23:00 +20°C° 0 mm 1 mps 735 mmHg 100%
Show more